Flag for Canada Weather past 2 weeks in Cambridge, Ontario, Canada

Now
3 °F

Clear.


Feels Like: -6 °F
Forecast: -4 / 19 °F
Wind: 5 mph from Southwest

Location: Waterloo Well

Current Time: Feb 28, 2015 at 2:43:51 AM

Latest Report: Feb 28, 2015 at 2:00 AM


Visibility: 9 mi

Pressure: 30.68 "Hg

Humidity: 72%

Dew point: -4 °F

Location of CambridgeLocation

Historic Weather in Cambridge — Graph

°F

Cambridge temperature yesterday

Maximum temperature yesterday: 9 °F (at 1:00 PM)
Minimum temperature yesterday: -15 °F (at 7:00 AM)
Average temperature yesterday: -1 °F

Past Weeks' High & Low Weather Summary

 TemperatureHumidityPressure
High21 °F (Feb 22, 12:00 PM)93% (Feb 14, 9:03 AM)30.67 "Hg (Feb 14, 9:03 AM)
Low-27 °F (Feb 16, 7:04 AM)30% (Feb 17, 11:00 AM)29.58 "Hg (Feb 14, 10:00 AM)
Average2 °F74%30.12 "Hg
* Reported Feb 13 1:00 AM — Feb 28 1:00 AM, Cambridge, Weather by CustomWeather, © 2015

Note: Actual official high and low records may vary slightly from our data, if they occured in-between our weather recording intervals... More about our weather records

Advertising

Cambridge weather history for previous 24 hours

 ConditionsComfort  
Time TempWeatherWind HumidityBarometerVisibility
1:00 AM
Sat, Feb 28
1 °FClear.6 mph78%30.67 "Hg9 mi
12:00 AM3 °FClear.10 mph78%30.66 "Hg9 mi
11:00 PM
Fri, Feb 27
1 °FClear.6 mph78%30.66 "Hg9 mi
10:00 PM0 °FClear.3 mph78%30.66 "Hg9 mi
9:00 PM1 °FClear.2 mph71%30.64 "Hg9 mi
8:00 PM1 °FClear.7 mph71%30.63 "Hg9 mi
7:00 PM5 °FClear.8 mph66%30.62 "Hg9 mi
6:00 PM7 °FSunny.10 mph61%30.60 "Hg9 mi
5:00 PM9 °FSunny.14 mph56%30.59 "Hg9 mi
4:00 PM9 °FSunny.10 mph56%30.58 "Hg9 mi
3:00 PM9 °FSunny.12 mph56%30.56 "Hg9 mi
2:00 PM9 °FSunny.15 mph61%30.54 "Hg9 mi
1:00 PM9 °FSunny.13 mph66%30.55 "Hg9 mi
12:00 PM7 °FSunny.12 mph66%30.54 "Hg9 mi
11:00 AM5 °FSunny.14 mph72%30.53 "Hg9 mi
10:00 AM5 °FSunny.12 mph85%30.51 "Hg9 mi
9:00 AM-2 °FIce fog.2 mph92%30.50 "Hg4 mi
8:46 AM-4 °FIce fog.2 mph84%30.50 "Hg5 mi
8:02 AM-8 °FPartly sunny.5 mph84%30.48 "Hg9 mi
7:00 AM-15 °FLight snow. Passing clouds.3 mph83%30.46 "Hg9 mi
6:53 AM-13 °FLight snow. Passing clouds.3 mph83%30.46 "Hg8 mi
6:00 AM-11 °FClear.5 mph76%30.44 "Hg9 mi
5:00 AM-13 °FLight snow. Clear.6 mph83%30.40 "Hg7 mi
4:00 AM-11 °FClear.3 mph84%30.37 "Hg9 mi
3:00 AM-8 °FClear.3 mph84%30.37 "Hg9 mi
2:00 AM-4 °FClear.6 mph84%30.36 "Hg9 mi
Weather by CustomWeather, © 2015

See weather overviewHow to use our weather pages